Temp
-29 -29 -29 -28 -28 -28 -28 -28 -28 -28 -28 -27 -27 -27 -27 -27 -26 -25 -25 -25 -25 -25 -25 -25 -25 -25 -25 -25 -25 -25 -25 -24 -24 -24 -24 -24 -24 -24 -24 -24 -24 -24 -24 -24 -24 -24 -24 -23 -23 -23 -23 -23 -23 -23 -23 -22 -22 -22 -22 -21 -21 -21 -21 -21 -20 -20 -20 -20 -20 -19 -19 -19 -19 -18
-30 -29 -29 -29 -29 -29 -29 -29 -29 -28 -28 -28 -28 -28 -28 -27 -27 -26 -26 -25 -25 -25 -25 -25 -25 -25 -25 -25 -25 -25 -25 -25 -25 -25 -25 -25 -25 -24 -24 -24 -24 -25 -25 -24 -24 -24 -24 -24 -24 -23 -23 -23 -23 -23 -23 -23 -23 -22 -22 -22 -22 -22 -21 -21 -21 -20 -20 -20 -20 -20 -20 -20 -20 -19
-31 -31 -31 -30 -30 -30 -30 -30 -29 -29 -29 -29 -29 -29 -28 -28 -28 -27 -27 -26 -25 -25 -26 -26 -26 -25 -25 -25 -25 -25 -25 -25 -25 -25 -25 -25 -25 -25 -25 -25 -25 -25 -25 -25 -25 -24 -24 -24 -24 -24 -24 -23 -23 -23 -23 -23 -23 -23 -23 -22 -22 -22 -22 -21 -21 -21 -20 -20 -20 -20 -20 -20 -20 -20
-32 -32 -32 -32 -32 -32 -31 -31 -31 -31 -31 -30 -30 -30 -30 -29 -29 -29 -28 -27 -26 -26 -26 -26 -26 -26 -26 -25 -25 -25 -25 -25 -26 -25 -25 -25 -25 -25 -25 -25 -25 -25 -25 -25 -25 -25 -25 -24 -24 -24 -24 -24 -24 -23 -23 -23 -23 -23 -23 -23 -23 -22 -22 -22 -22 -21 -21 -20 -20 -20 -20 -20 -20 -20
-33 -33 -33 -32 -32 -32 -32 -32 -32 -32 -32 -32 -32 -31 -31 -31 -31 -30 -30 -29 -27 -27 -27 -27 -26 -26 -26 -26 -26 -26 -25 -25 -26 -26 -26 -25 -25 -25 -25 -25 -25 -25 -25 -25 -25 -25 -25 -25 -25 -25 -25 -24 -24 -24 -24 -23 -23 -23 -23 -23 -23 -23 -22 -22 -22 -22 -21 -21 -21 -20 -20 -20 -20 -21
-33 -33 -33 -32 -32 -32 -32 -32 -32 -32 -32 -32 -32 -32 -32 -32 -32 -31 -31 -31 -30 -28 -28 -28 -27 -27 -27 -27 -26 -26 -26 -26 -26 -26 -26 -26 -26 -26 -25 -25 -25 -25 -25 -25 -25 -25 -25 -25 -25 -25 -25 -25 -25 -24 -24 -24 -24 -23 -23 -23 -23 -23 -23 -22 -22 -22 -22 -21 -21 -21 -20 -20 -20 -21
-33 -33 -33 -33 -33 -33 -32 -32 -32 -32 -32 -32 -32 -32 -32 -32 -32 -32 -32 -32 -31 -30 -30 -29 -29 -28 -28 -28 -27 -27 -27 -26 -26 -26 -26 -26 -26 -26 -26 -26 -26 -25 -25 -25 -25 -25 -25 -25 -25 -25 -25 -25 -25 -25 -25 -24 -24 -24 -24 -23 -23 -23 -23 -23 -22 -22 -22 -21 -21 -21 -21 -20 -20 -21
-33 -33 -33 -33 -33 -33 -33 -33 -33 -33 -33 -32 -32 -32 -32 -32 -32 -32 -32 -32 -32 -31 -31 -31 -30 -30 -30 -29 -29 -28 -28 -28 -27 -27 -27 -26 -26 -26 -26 -26 -26 -26 -26 -25 -25 -25 -25 -25 -25 -25 -25 -25 -25 -25 -25 -25 -25 -25 -24 -24 -24 -23 -23 -23 -23 -22 -22 -22 -21 -21 -21 -21 -21 -21
-34 -34 -34 -34 -34 -34 -33 -33 -33 -33 -33 -33 -33 -33 -33 -33 -33 -32 -32 -32 -32 -32 -31 -31 -31 -31 -31 -31 -30 -30 -30 -29 -29 -28 -28 -27 -27 -27 -27 -27 -27 -27 -26 -26 -26 -25 -25 -25 -25 -25 -25 -25 -25 -26 -25 -25 -25 -25 -25 -24 -24 -24 -23 -23 -23 -22 -22 -22 -21 -21 -21 -21 -21 -21
-35 -35 -35 -35 -35 -35 -35 -35 -35 -35 -35 -35 -34 -34 -34 -34 -34 -33 -33 -33 -33 -32 -32 -32 -32 -31 -31 -31 -31 -31 -31 -30 -30 -30 -29 -29 -29 -28 -28 -28 -28 -28 -28 -27 -27 -26 -26 -26 -26 -26 -26 -26 -26 -26 -26 -25 -25 -25 -25 -25 -24 -24 -24 -23 -23 -23 -22 -22 -22 -21 -21 -21 -21 -22
-37 -36 -36 -36 -36 -36 -36 -36 -36 -36 -36 -36 -36 -36 -35 -35 -35 -35 -34 -34 -34 -33 -33 -33 -32 -32 -32 -32 -32 -32 -31 -31 -31 -30 -30 -30 -30 -30 -29 -29 -29 -29 -29 -29 -29 -28 -27 -26 -26 -26 -26 -26 -26 -26 -26 -26 -26 -25 -25 -25 -25 -24 -24 -24 -23 -23 -22 -22 -22 -21 -21 -21 -22 -22
-38 -38 -38 -38 -38 -38 -38 -38 -38 -37 -37 -37 -37 -37 -37 -36 -36 -36 -36 -35 -35 -35 -34 -34 -33 -33 -33 -33 -33 -32 -32 -32 -32 -31 -31 -31 -31 -31 -30 -30 -30 -30 -30 -30 -30 -29 -29 -28 -27 -27 -27 -27 -27 -26 -27 -27 -26 -26 -26 -26 -25 -25 -24 -24 -24 -23 -23 -22 -22 -22 -21 -22 -22 -22
-39 -39 -39 -39 -39 -39 -39 -39 -39 -39 -39 -38 -38 -38 -38 -38 -37 -37 -37 -37 -36 -36 -36 -35 -35 -34 -34 -34 -34 -34 -33 -33 -33 -32 -32 -31 -31 -31 -31 -31 -30 -31 -31 -31 -31 -31 -30 -29 -29 -28 -28 -28 -28 -27 -27 -27 -27 -26 -26 -26 -26 -25 -25 -24 -24 -24 -23 -23 -22 -22 -22 -22 -22 -22
-40 -40 -40 -40 -40 -40 -40 -40 -40 -40 -40 -39 -39 -39 -39 -39 -39 -38 -38 -38 -38 -37 -37 -36 -36 -36 -35 -35 -35 -35 -34 -34 -34 -33 -33 -33 -32 -32 -31 -31 -31 -31 -31 -31 -31 -31 -31 -31 -30 -30 -29 -29 -29 -28 -28 -29 -28 -27 -27 -26 -26 -26 -25 -25 -25 -24 -24 -23 -23 -22 -22 -22 -22 -22
-40 -40 -40 -40 -40 -40 -40 -40 -40 -40 -40 -40 -39 -39 -39 -39 -39 -39 -39 -39 -38 -38 -38 -37 -37 -37 -36 -36 -36 -36 -35 -35 -35 -35 -34 -34 -33 -33 -32 -32 -31 -31 -31 -31 -31 -31 -31 -31 -31 -31 -30 -30 -30 -30 -30 -30 -30 -29 -28 -27 -27 -27 -26 -26 -25 -25 -24 -24 -23 -23 -23 -22 -22 -22
-40 -40 -40 -40 -40 -40 -40 -40 -40 -40 -40 -40 -39 -39 -39 -39 -39 -39 -39 -39 -39 -38 -38 -38 -37 -37 -37 -37 -37 -37 -37 -37 -36 -36 -36 -35 -35 -34 -33 -33 -32 -32 -32 -32 -32 -31 -31 -31 -31 -31 -31 -31 -30 -31 -31 -31 -31 -30 -29 -28 -28 -27 -27 -27 -26 -25 -25 -24 -24 -23 -23 -23 -23 -22
-40 -39 -40 -40 -40 -40 -40 -40 -40 -40 -40 -39 -39 -39 -39 -39 -38 -38 -38 -38 -38 -38 -37 -37 -37 -37 -37 -37 -37 -37 -37 -37 -37 -37 -37 -37 -36 -35 -35 -34 -33 -33 -34 -34 -32 -32 -32 -32 -32 -31 -31 -31 -31 -31 -31 -31 -31 -31 -30 -29 -29 -28 -28 -28 -27 -26 -26 -25 -24 -24 -23 -23 -23 -23
-39 -39 -39 -39 -40 -40 -40 -40 -40 -40 -39 -39 -39 -39 -38 -38 -38 -38 -38 -38 -37 -37 -37 -37 -37 -37 -37 -37 -37 -37 -37 -37 -37 -37 -37 -37 -37 -37 -36 -35 -34 -34 -35 -35 -33 -32 -32 -32 -32 -32 -31 -31 -31 -31 -31 -31 -31 -31 -31 -30 -30 -29 -29 -29 -28 -27 -26 -26 -25 -25 -24 -24 -24 -24
-39 -39 -39 -39 -39 -39 -40 -40 -40 -39 -39 -39 -39 -39 -38 -38 -38 -38 -37 -37 -37 -37 -37 -37 -36 -37 -37 -37 -37 -37 -37 -37 -37 -37 -37 -37 -37 -37 -37 -36 -36 -35 -36 -36 -35 -33 -33 -33 -33 -32 -32 -31 -31 -31 -31 -31 -31 -31 -31 -31 -31 -30 -30 -29 -29 -28 -28 -27 -26 -26 -25 -25 -24 -24
-40 -40 -39 -39 -39 -39 -39 -39 -39 -39 -39 -38 -38 -38 -38 -38 -38 -37 -37 -38 -37 -37 -37 -37 -37 -37 -37 -37 -37 -37 -37 -37 -37 -38 -38 -37 -38 -38 -37 -37 -36 -36 -37 -38 -37 -35 -34 -34 -33 -33 -33 -32 -32 -31 -31 -31 -31 -31 -31 -31 -31 -31 -30 -30 -30 -29 -29 -28 -27 -27 -26 -26 -25 -25
-40 -40 -40 -39 -39 -39 -39 -39 -39 -39 -39 -38 -38 -38 -38 -38 -38 -38 -38 -38 -38 -38 -38 -38 -38 -38 -37 -37 -37 -37 -37 -37 -37 -37 -37 -37 -38 -38 -37 -37 -37 -37 -38 -39 -38 -36 -35 -35 -35 -34 -34 -33 -33 -32 -32 -32 -32 -32 -31 -31 -31 -31 -31 -30 -30 -30 -29 -29 -29 -28 -27 -27 -26 -26
-40 -40 -40 -39 -39 -39 -39 -39 -39 -39 -39 -38 -38 -38 -38 -38 -38 -38 -39 -39 -39 -40 -39 -39 -39 -38 -38 -38 -38 -38 -38 -37 -37 -37 -36 -37 -38 -38 -37 -37 -37 -37 -38 -39 -39 -37 -36 -36 -36 -35 -35 -35 -34 -33 -33 -32 -32 -32 -32 -32 -31 -31 -31 -31 -30 -30 -30 -30 -29 -29 -29 -28 -28 -27
-40 -40 -40 -40 -40 -39 -39 -39 -39 -39 -39 -38 -38 -38 -38 -38 -38 -39 -40 -40 -40 -40 -40 -40 -40 -39 -39 -39 -39 -38 -38 -38 -38 -37 -37 -37 -38 -38 -38 -38 -37 -37 -38 -39 -39 -38 -37 -37 -37 -37 -36 -36 -35 -34 -33 -33 -33 -33 -33 -33 -32 -32 -32 -31 -31 -31 -30 -30 -30 -30 -29 -29 -29 -28
-40 -40 -40 -40 -40 -40 -40 -40 -39 -39 -39 -39 -39 -39 -39 -39 -39 -40 -40 -40 -40 -39 -39 -40 -40 -40 -40 -40 -40 -39 -39 -39 -39 -38 -38 -37 -38 -39 -39 -38 -37 -37 -38 -39 -40 -38 -38 -38 -38 -38 -37 -37 -36 -35 -34 -34 -34 -34 -34 -34 -33 -33 -32 -32 -31 -31 -31 -30 -30 -30 -30 -30 -29 -29
-40 -40 -40 -40 -40 -40 -40 -41 -40 -40 -40 -40 -39 -39 -39 -40 -40 -40 -40 -40 -40 -40 -40 -40 -40 -40 -40 -40 -40 -40 -40 -39 -39 -39 -38 -38 -38 -38 -39 -38 -37 -37 -38 -40 -40 -39 -38 -39 -39 -39 -38 -37 -36 -36 -35 -35 -35 -36 -36 -35 -34 -34 -33 -33 -32 -32 -31 -31 -31 -30 -30 -30 -30 -30
-40 -40 -40 -40 -41 -41 -41 -41 -41 -41 -41 -41 -40 -40 -40 -40 -40 -40 -40 -40 -40 -41 -41 -41 -40 -40 -41 -41 -41 -41 -40 -40 -39 -39 -39 -38 -38 -38 -38 -38 -37 -38 -39 -40 -40 -39 -39 -39 -39 -39 -38 -37 -37 -37 -36 -37 -37 -36 -36 -36 -35 -35 -34 -33 -33 -32 -32 -32 -31 -31 -31 -31 -31 -30
-39 -40 -40 -40 -40 -40 -40 -40 -40 -41 -41 -41 -41 -41 -41 -41 -41 -41 -41 -41 -41 -41 -41 -41 -41 -41 -41 -41 -41 -41 -40 -40 -40 -39 -39 -39 -38 -38 -38 -38 -37 -38 -39 -40 -40 -40 -40 -39 -39 -38 -38 -37 -37 -37 -37 -37 -37 -37 -37 -36 -36 -35 -35 -34 -34 -33 -33 -33 -32 -32 -32 -32 -31 -31
-39 -39 -40 -40 -40 -40 -40 -40 -41 -41 -41 -41 -41 -42 -42 -42 -42 -42 -42 -42 -42 -42 -42 -42 -42 -42 -42 -42 -42 -41 -41 -40 -40 -39 -39 -39 -38 -38 -38 -38 -38 -38 -39 -40 -40 -40 -40 -40 -39 -39 -38 -38 -38 -37 -37 -37 -37 -37 -37 -36 -36 -36 -35 -35 -34 -34 -34 -33 -33 -33 -33 -33 -32 -32
-39 -39 -40 -40 -40 -41 -41 -41 -41 -41 -41 -42 -42 -42 -43 -43 -43 -43 -43 -43 -43 -43 -43 -43 -43 -43 -42 -42 -42 -42 -41 -41 -40 -40 -39 -39 -39 -39 -38 -38 -38 -39 -40 -40 -40 -41 -40 -40 -40 -39 -39 -38 -38 -38 -38 -38 -37 -37 -37 -36 -36 -36 -35 -35 -35 -34 -34 -34 -34 -34 -34 -33 -33 -33
-40 -40 -40 -41 -41 -41 -42 -42 -42 -42 -42 -43 -43 -43 -43 -44 -44 -44 -44 -44 -44 -43 -43 -43 -43 -43 -43 -43 -42 -42 -42 -41 -41 -40 -40 -40 -39 -39 -39 -39 -39 -39 -40 -40 -41 -41 -41 -41 -40 -40 -39 -38 -38 -38 -38 -37 -37 -37 -36 -36 -36 -36 -36 -35 -35 -35 -35 -34 -34 -34 -34 -34 -33 -33
-41 -41 -42 -42 -42 -42 -42 -42 -42 -42 -43 -44 -44 -44 -44 -44 -44 -44 -44 -44 -44 -44 -44 -43 -43 -43 -43 -43 -43 -43 -42 -42 -41 -41 -40 -40 -40 -39 -39 -39 -39 -40 -40 -40 -41 -41 -41 -41 -40 -40 -39 -38 -38 -38 -38 -37 -37 -36 -36 -36 -36 -36 -35 -35 -35 -35 -35 -35 -34 -34 -34 -34 -33 -33
-42 -42 -43 -43 -43 -43 -42 -42 -43 -43 -44 -44 -44 -45 -45 -45 -45 -45 -45 -45 -45 -45 -44 -44 -43 -43 -43 -43 -43 -43 -43 -42 -42 -41 -41 -40 -40 -40 -40 -40 -40 -40 -40 -41 -41 -41 -41 -41 -40 -39 -39 -38 -38 -38 -37 -37 -37 -36 -36 -36 -36 -35 -35 -35 -35 -35 -35 -34 -34 -34 -34 -33 -33 -33
-42 -43 -43 -43 -43 -43 -43 -43 -43 -44 -45 -45 -45 -45 -46 -46 -46 -46 -46 -46 -46 -45 -45 -44 -43 -43 -44 -44 -44 -44 -44 -43 -43 -42 -41 -41 -41 -40 -40 -40 -40 -41 -41 -41 -41 -41 -41 -40 -40 -39 -39 -38 -38 -37 -37 -37 -36 -36 -36 -36 -35 -35 -35 -35 -35 -34 -34 -34 -34 -34 -34 -33 -33 -33
-42 -43 -43 -43 -43 -43 -43 -43 -44 -44 -45 -45 -45 -46 -46 -46 -47 -47 -47 -47 -47 -46 -45 -44 -44 -44 -44 -44 -45 -45 -44 -44 -43 -42 -42 -42 -41 -41 -40 -41 -41 -41 -41 -41 -41 -41 -40 -40 -39 -39 -38 -38 -38 -37 -37 -36 -36 -36 -36 -35 -35 -35 -35 -35 -34 -34 -34 -34 -34 -34 -34 -33 -33 -33
-42 -43 -43 -43 -43 -43 -43 -44 -44 -45 -45 -46 -46 -46 -46 -47 -47 -47 -47 -47 -47 -47 -46 -45 -44 -44 -44 -45 -45 -45 -45 -44 -43 -43 -42 -42 -42 -41 -41 -41 -41 -41 -41 -41 -41 -40 -40 -40 -39 -39 -38 -38 -37 -37 -36 -36 -36 -36 -35 -35 -35 -35 -35 -34 -34 -34 -34 -34 -34 -34 -33 -33 -33 -33
-43 -43 -43 -43 -44 -44 -44 -44 -44 -45 -46 -46 -46 -46 -47 -47 -47 -47 -47 -47 -47 -47 -46 -46 -45 -44 -44 -45 -45 -45 -45 -44 -43 -43 -43 -42 -42 -42 -41 -41 -41 -41 -41 -41 -40 -40 -40 -39 -39 -38 -38 -37 -37 -36 -36 -36 -36 -35 -35 -35 -35 -35 -35 -34 -34 -34 -34 -34 -34 -34 -33 -33 -33 -33
-43 -43 -43 -44 -44 -44 -44 -44 -44 -45 -45 -46 -46 -47 -47 -47 -47 -47 -47 -47 -47 -47 -46 -46 -46 -45 -44 -44 -44 -44 -44 -44 -43 -43 -42 -42 -42 -42 -41 -41 -41 -41 -41 -41 -40 -40 -39 -39 -39 -38 -37 -37 -36 -36 -36 -36 -35 -35 -35 -35 -35 -35 -35 -35 -34 -34 -34 -34 -34 -34 -34 -34 -34 -33
-43 -43 -43 -44 -44 -44 -44 -44 -44 -44 -45 -46 -46 -46 -47 -47 -47 -47 -47 -47 -47 -46 -46 -46 -46 -45 -45 -44 -44 -44 -44 -44 -43 -43 -42 -42 -42 -42 -42 -42 -41 -41 -41 -40 -40 -39 -39 -39 -38 -37 -37 -37 -37 -36 -36 -36 -35 -35 -35 -35 -35 -35 -35 -35 -34 -34 -34 -34 -34 -34 -34 -34 -34 -34
-43 -43 -43 -43 -44 -44 -44 -44 -44 -44 -44 -45 -46 -46 -46 -47 -47 -47 -46 -46 -46 -46 -46 -46 -46 -46 -45 -45 -44 -44 -44 -43 -43 -43 -43 -42 -42 -42 -42 -42 -41 -41 -40 -40 -40 -39 -39 -38 -37 -37 -37 -37 -37 -36 -36 -36 -36 -35 -35 -35 -35 -35 -35 -35 -35 -35 -35 -35 -34 -34 -34 -34 -34 -34
-43 -43 -43 -43 -44 -44 -44 -44 -44 -44 -44 -44 -45 -45 -46 -46 -46 -46 -46 -46 -46 -46 -46 -46 -45 -45 -45 -45 -44 -44 -44 -43 -43 -43 -43 -42 -42 -42 -42 -41 -41 -40 -40 -40 -39 -39 -38 -38 -38 -38 -37 -37 -36 -36 -36 -36 -35 -35 -35 -35 -35 -35 -35 -35 -35 -35 -35 -35 -35 -35 -35 -34 -34 -34
-43 -43 -43 -43 -43 -44 -44 -44 -44 -44 -44 -44 -44 -45 -45 -45 -45 -45 -46 -46 -45 -45 -45 -45 -45 -45 -44 -44 -44 -44 -43 -43 -43 -43 -42 -42 -42 -42 -41 -41 -40 -40 -40 -39 -39 -39 -38 -38 -38 -37 -37 -36 -36 -36 -36 -35 -35 -35 -36 -35 -35 -35 -35 -35 -35 -35 -35 -35 -35 -35 -34 -34 -34 -34
-43 -43 -43 -43 -43 -43 -44 -44 -44 -44 -44 -44 -44 -44 -45 -45 -45 -45 -45 -45 -45 -45 -45 -44 -44 -44 -44 -43 -43 -43 -43 -43 -42 -42 -42 -42 -41 -41 -40 -40 -40 -40 -40 -39 -39 -38 -38 -38 -37 -37 -36 -36 -36 -36 -36 -36 -35 -35 -35 -35 -35 -35 -35 -35 -35 -35 -35 -35 -35 -35 -34 -34 -34 -34
-43 -43 -43 -43 -43 -43 -43 -44 -44 -44 -44 -44 -44 -44 -44 -44 -44 -44 -44 -44 -44 -44 -44 -44 -44 -43 -43 -43 -43 -43 -43 -42 -42 -41 -41 -41 -41 -40 -40 -40 -40 -39 -39 -39 -38 -38 -37 -37 -36 -36 -36 -36 -36 -36 -36 -36 -36 -35 -35 -35 -35 -35 -35 -35 -35 -35 -35 -35 -35 -35 -35 -35 -34 -34
-43 -43 -43 -43 -43 -43 -43 -43 -44 -44 -44 -44 -44 -44 -44 -44 -44 -44 -44 -44 -44 -44 -44 -43 -43 -43 -43 -43 -42 -42 -42 -42 -41 -41 -40 -40 -40 -40 -40 -39 -39 -39 -38 -38 -37 -37 -37 -37 -36 -36 -36 -36 -36 -36 -36 -36 -36 -36 -36 -36 -36 -35 -35 -35 -35 -35 -35 -35 -35 -35 -35 -35 -34 -34
-44 -43 -43 -43 -43 -43 -43 -43 -43 -44 -44 -44 -44 -44 -44 -44 -44 -44 -44 -44 -44 -43 -43 -43 -43 -43 -43 -42 -42 -42 -41 -41 -40 -40 -40 -40 -39 -39 -39 -38 -38 -38 -38 -37 -37 -37 -37 -37 -36 -36 -36 -36 -36 -36 -36 -36 -36 -36 -36 -36 -35 -35 -35 -35 -35 -35 -35 -35 -35 -35 -35 -35 -34 -34
Height
5351 5351 5351 5352 5353 5354 5353 5353 5355 5355 5354 5355 5355 5355 5355 5355 5359 5367 5372 5377 5385 5390 5388 5387 5392 5398 5399 5402 5407 5409 5412 5418 5420 5421 5425 5429 5432 5437 5441 5446 5452 5456 5460 5464 5468 5472 5476 5480 5482 5486 5492 5498 5503 5505 5508 5511 5515 5519 5522 5526 5528 5530 5533 5539 5543 5548 5553 5557 5560 5564 5567 5571 5574 5577
5334 5334 5335 5334 5335 5337 5336 5336 5337 5337 5336 5337 5337 5337 5337 5337 5338 5343 5348 5355 5367 5372 5370 5369 5373 5378 5381 5383 5388 5392 5395 5400 5403 5403 5408 5413 5416 5420 5424 5428 5435 5440 5444 5449 5453 5457 5462 5466 5469 5472 5477 5484 5489 5492 5496 5500 5504 5506 5509 5513 5517 5518 5521 5526 5531 5536 5541 5545 5550 5554 5557 5561 5565 5568
5317 5317 5319 5318 5318 5319 5319 5319 5320 5319 5318 5318 5318 5317 5318 5319 5319 5322 5322 5327 5346 5355 5348 5350 5357 5359 5362 5364 5365 5372 5378 5382 5384 5386 5390 5396 5400 5403 5407 5412 5417 5423 5428 5433 5438 5442 5447 5452 5456 5459 5463 5469 5474 5478 5483 5488 5491 5493 5495 5500 5503 5506 5510 5515 5518 5523 5529 5534 5539 5543 5547 5551 5555 5558
5302 5302 5303 5303 5302 5301 5302 5302 5302 5301 5300 5300 5299 5298 5299 5301 5300 5301 5299 5300 5320 5335 5326 5327 5340 5342 5342 5345 5346 5351 5360 5363 5364 5368 5372 5377 5383 5386 5390 5395 5399 5404 5410 5416 5422 5427 5431 5436 5441 5445 5450 5454 5459 5463 5469 5473 5477 5481 5484 5487 5490 5493 5499 5504 5506 5511 5517 5522 5527 5532 5536 5541 5545 5549
5287 5287 5289 5289 5287 5285 5285 5286 5285 5284 5283 5282 5281 5281 5281 5283 5283 5281 5279 5277 5291 5309 5309 5305 5317 5324 5322 5323 5328 5331 5337 5343 5345 5347 5352 5357 5363 5368 5373 5377 5381 5386 5391 5397 5404 5410 5415 5420 5426 5431 5436 5440 5444 5448 5454 5459 5463 5467 5470 5473 5477 5481 5485 5490 5495 5500 5505 5510 5515 5520 5525 5530 5535 5539
5272 5271 5273 5273 5271 5268 5267 5269 5268 5267 5267 5265 5264 5265 5263 5264 5266 5264 5260 5259 5264 5280 5290 5287 5292 5303 5301 5301 5309 5312 5313 5322 5326 5327 5332 5339 5343 5348 5353 5358 5363 5369 5373 5378 5385 5392 5398 5403 5409 5416 5422 5426 5430 5434 5439 5444 5447 5451 5455 5458 5463 5468 5472 5477 5482 5488 5494 5498 5503 5507 5513 5519 5524 5528
5255 5254 5255 5255 5253 5250 5250 5251 5251 5248 5248 5247 5246 5248 5247 5245 5248 5248 5243 5242 5245 5253 5266 5270 5273 5281 5280 5278 5287 5292 5291 5299 5306 5307 5312 5319 5323 5327 5332 5337 5344 5351 5355 5359 5365 5372 5379 5385 5392 5400 5406 5411 5415 5419 5424 5427 5431 5435 5440 5445 5450 5455 5459 5465 5470 5475 5481 5486 5491 5497 5502 5507 5512 5516
5238 5235 5235 5236 5234 5232 5232 5233 5232 5230 5229 5229 5227 5228 5230 5227 5228 5230 5226 5224 5227 5230 5240 5251 5256 5260 5260 5258 5264 5271 5270 5275 5283 5286 5291 5297 5303 5309 5313 5317 5323 5331 5336 5339 5344 5352 5360 5367 5373 5381 5389 5395 5400 5403 5408 5412 5416 5420 5425 5431 5436 5440 5446 5452 5458 5463 5468 5473 5479 5486 5491 5496 5501 5504
5219 5217 5217 5217 5215 5214 5214 5214 5213 5211 5209 5208 5207 5207 5209 5208 5207 5209 5209 5208 5209 5210 5217 5230 5238 5240 5240 5239 5243 5250 5251 5252 5260 5266 5270 5276 5283 5288 5293 5297 5303 5310 5315 5319 5324 5331 5339 5347 5355 5361 5368 5377 5384 5387 5390 5396 5402 5406 5410 5415 5419 5425 5432 5438 5444 5449 5455 5461 5467 5473 5480 5485 5490 5494
5201 5200 5199 5199 5197 5195 5195 5195 5193 5191 5189 5188 5188 5188 5189 5189 5188 5190 5192 5192 5191 5192 5197 5207 5217 5222 5224 5220 5222 5231 5234 5231 5237 5247 5252 5256 5261 5265 5270 5277 5284 5290 5295 5299 5304 5310 5317 5324 5333 5341 5348 5357 5366 5371 5373 5378 5385 5391 5395 5399 5403 5410 5417 5423 5429 5435 5442 5448 5454 5460 5467 5473 5478 5483
5186 5185 5183 5182 5181 5179 5177 5177 5175 5173 5172 5170 5170 5171 5171 5171 5171 5173 5175 5176 5175 5177 5180 5187 5195 5201 5205 5202 5202 5211 5215 5212 5217 5228 5233 5235 5238 5242 5247 5256 5265 5270 5275 5279 5284 5289 5295 5302 5311 5320 5328 5336 5345 5354 5358 5360 5366 5376 5381 5384 5389 5395 5402 5408 5414 5421 5427 5434 5441 5447 5453 5460 5465 5469
5172 5171 5169 5167 5166 5163 5161 5161 5159 5158 5156 5155 5156 5157 5156 5156 5157 5158 5159 5160 5160 5161 5164 5169 5175 5179 5184 5186 5185 5189 5194 5196 5201 5206 5205 5209 5218 5224 5228 5234 5243 5249 5254 5260 5266 5271 5275 5281 5290 5299 5308 5316 5324 5334 5342 5344 5348 5358 5366 5371 5375 5381 5388 5394 5399 5406 5412 5420 5427 5433 5439 5445 5450 5454
5160 5158 5157 5155 5153 5151 5150 5148 5147 5145 5143 5142 5143 5145 5144 5143 5144 5144 5145 5146 5146 5147 5149 5153 5157 5159 5163 5170 5170 5170 5175 5180 5183 5182 5179 5186 5199 5205 5206 5213 5222 5230 5236 5242 5249 5255 5259 5262 5270 5279 5287 5296 5305 5315 5324 5328 5331 5340 5349 5356 5361 5366 5372 5379 5384 5390 5397 5404 5411 5418 5424 5430 5435 5440
5151 5149 5147 5146 5144 5142 5140 5138 5137 5135 5133 5132 5133 5135 5134 5133 5132 5131 5133 5134 5134 5135 5137 5140 5142 5142 5147 5155 5155 5154 5157 5160 5162 5163 5163 5168 5177 5180 5182 5193 5207 5213 5216 5221 5229 5238 5245 5246 5250 5259 5267 5278 5289 5297 5306 5312 5315 5322 5332 5340 5346 5351 5356 5363 5369 5374 5381 5388 5395 5402 5408 5415 5420 5426
5143 5141 5140 5139 5137 5135 5132 5130 5129 5127 5125 5124 5123 5125 5125 5124 5123 5122 5123 5124 5124 5124 5125 5128 5129 5129 5135 5142 5142 5141 5142 5142 5145 5148 5147 5149 5156 5159 5162 5174 5190 5198 5197 5199 5205 5216 5226 5229 5230 5239 5249 5260 5272 5281 5290 5297 5300 5304 5313 5322 5329 5335 5339 5344 5351 5357 5364 5372 5379 5386 5393 5400 5406 5412
5135 5134 5133 5131 5129 5127 5125 5123 5121 5119 5117 5116 5115 5115 5115 5114 5114 5114 5114 5115 5115 5114 5115 5117 5119 5121 5124 5129 5131 5130 5128 5127 5130 5133 5131 5133 5139 5143 5146 5155 5171 5182 5179 5174 5179 5191 5203 5209 5212 5220 5231 5243 5255 5265 5274 5281 5284 5288 5295 5304 5312 5318 5321 5327 5334 5340 5347 5356 5364 5372 5379 5385 5392 5398
5128 5126 5125 5123 5122 5120 5117 5115 5113 5111 5109 5108 5106 5106 5106 5106 5106 5105 5105 5105 5106 5106 5107 5109 5112 5113 5114 5118 5122 5120 5116 5114 5117 5119 5119 5121 5125 5127 5131 5137 5151 5162 5157 5150 5156 5169 5182 5190 5194 5203 5216 5228 5238 5248 5257 5265 5270 5274 5280 5288 5295 5300 5305 5311 5317 5323 5332 5342 5351 5358 5365 5371 5377 5384
5120 5118 5117 5116 5114 5112 5109 5107 5104 5102 5101 5100 5099 5098 5098 5098 5097 5096 5096 5096 5096 5097 5098 5100 5104 5105 5104 5108 5112 5110 5105 5103 5106 5109 5110 5112 5112 5113 5117 5122 5131 5142 5140 5134 5139 5152 5165 5173 5177 5186 5201 5213 5220 5230 5240 5248 5255 5260 5265 5271 5277 5284 5290 5295 5302 5310 5319 5329 5337 5345 5350 5356 5363 5369
5113 5111 5109 5108 5106 5104 5101 5098 5096 5094 5094 5093 5092 5091 5090 5089 5088 5088 5088 5088 5087 5088 5089 5090 5094 5095 5095 5097 5099 5099 5095 5092 5095 5098 5099 5101 5102 5102 5105 5111 5119 5128 5130 5124 5126 5137 5151 5158 5160 5170 5186 5195 5202 5212 5222 5230 5238 5245 5249 5254 5262 5270 5276 5282 5290 5298 5306 5315 5323 5330 5336 5342 5348 5354
5106 5104 5102 5100 5098 5096 5094 5091 5088 5087 5085 5085 5084 5083 5082 5081 5080 5080 5079 5078 5078 5078 5079 5079 5081 5083 5084 5084 5086 5086 5084 5083 5085 5087 5088 5091 5092 5092 5097 5103 5110 5118 5119 5114 5112 5123 5137 5142 5145 5157 5170 5177 5185 5196 5204 5212 5221 5228 5234 5240 5249 5256 5262 5269 5277 5285 5293 5301 5309 5316 5322 5328 5334 5339
5100 5097 5094 5092 5090 5088 5086 5084 5081 5079 5076 5076 5076 5075 5074 5073 5072 5072 5071 5069 5069 5069 5069 5069 5070 5071 5072 5072 5073 5073 5072 5073 5076 5075 5078 5083 5084 5084 5089 5095 5101 5105 5106 5103 5102 5111 5124 5130 5135 5145 5155 5162 5171 5179 5186 5196 5205 5213 5220 5228 5236 5242 5249 5257 5265 5273 5280 5288 5296 5304 5310 5315 5320 5324
5094 5091 5088 5085 5083 5082 5080 5077 5074 5071 5068 5067 5066 5065 5065 5064 5064 5065 5063 5062 5062 5060 5058 5058 5059 5060 5061 5061 5062 5062 5062 5064 5064 5065 5071 5076 5075 5075 5079 5083 5088 5092 5096 5098 5097 5101 5113 5121 5124 5131 5139 5146 5154 5163 5172 5182 5191 5199 5209 5216 5223 5230 5237 5245 5253 5261 5269 5276 5284 5291 5297 5302 5307 5310
5088 5084 5082 5079 5076 5074 5072 5069 5066 5063 5060 5058 5058 5056 5056 5056 5058 5058 5056 5053 5053 5051 5050 5050 5050 5050 5051 5051 5051 5052 5053 5055 5055 5056 5061 5066 5066 5066 5068 5071 5077 5085 5091 5093 5090 5092 5103 5110 5112 5117 5124 5132 5141 5150 5161 5171 5180 5190 5198 5204 5210 5218 5226 5234 5242 5250 5258 5266 5273 5279 5284 5290 5294 5297
5082 5078 5076 5073 5070 5067 5064 5061 5058 5056 5053 5051 5050 5049 5048 5049 5049 5048 5045 5043 5043 5043 5044 5045 5043 5042 5042 5042 5042 5043 5044 5047 5048 5048 5052 5055 5056 5057 5059 5063 5070 5078 5084 5084 5081 5085 5094 5099 5102 5108 5115 5122 5132 5142 5153 5163 5171 5180 5186 5190 5199 5208 5216 5224 5233 5241 5248 5255 5262 5267 5273 5278 5282 5286
5076 5074 5071 5068 5064 5060 5057 5054 5051 5049 5046 5044 5042 5041 5040 5040 5040 5038 5036 5036 5036 5036 5036 5036 5035 5035 5035 5035 5034 5034 5035 5038 5040 5042 5043 5045 5046 5049 5052 5056 5062 5070 5077 5076 5075 5079 5084 5088 5094 5100 5105 5114 5124 5134 5145 5154 5161 5168 5174 5180 5190 5200 5207 5215 5224 5231 5239 5245 5251 5257 5262 5267 5271 5275
5071 5069 5066 5063 5059 5055 5052 5049 5046 5044 5041 5038 5036 5034 5033 5032 5031 5029 5029 5029 5028 5028 5027 5026 5027 5027 5027 5027 5027 5027 5028 5030 5032 5034 5035 5036 5038 5042 5046 5049 5055 5064 5069 5068 5068 5072 5076 5080 5086 5090 5097 5107 5118 5127 5136 5144 5151 5159 5165 5173 5183 5192 5198 5206 5215 5222 5229 5236 5242 5247 5252 5257 5261 5266
5065 5063 5060 5057 5053 5050 5046 5044 5041 5039 5036 5033 5030 5028 5026 5025 5024 5022 5021 5020 5020 5020 5019 5019 5019 5020 5020 5020 5020 5020 5021 5022 5024 5026 5028 5029 5031 5036 5040 5043 5049 5057 5060 5060 5062 5066 5069 5074 5080 5085 5093 5103 5111 5119 5128 5136 5144 5151 5159 5167 5177 5184 5191 5199 5206 5214 5221 5228 5234 5239 5243 5248 5252 5257
5060 5057 5054 5050 5047 5043 5040 5038 5035 5033 5030 5028 5025 5023 5021 5019 5018 5017 5016 5015 5014 5014 5014 5013 5013 5013 5013 5014 5014 5014 5014 5016 5017 5019 5021 5023 5027 5031 5034 5038 5044 5050 5052 5054 5057 5060 5064 5070 5077 5084 5091 5098 5105 5113 5123 5131 5138 5145 5154 5163 5171 5178 5185 5192 5200 5207 5215 5221 5226 5231 5236 5241 5245 5249
5053 5050 5047 5043 5040 5037 5035 5032 5030 5028 5025 5023 5021 5019 5017 5015 5014 5013 5012 5011 5010 5010 5009 5008 5008 5008 5008 5008 5008 5008 5009 5011 5013 5015 5017 5019 5023 5026 5029 5034 5040 5045 5047 5049 5052 5056 5061 5068 5075 5081 5087 5094 5102 5110 5119 5126 5133 5141 5150 5159 5166 5173 5181 5187 5195 5202 5208 5214 5220 5224 5229 5234 5237 5241
5047 5044 5041 5037 5035 5032 5030 5028 5026 5023 5021 5019 5017 5015 5013 5012 5011 5009 5008 5007 5006 5005 5004 5004 5003 5003 5003 5004 5004 5005 5006 5008 5009 5011 5013 5016 5019 5022 5026 5031 5036 5040 5043 5045 5048 5052 5058 5064 5071 5077 5083 5091 5099 5108 5115 5122 5130 5138 5147 5155 5162 5169 5176 5183 5191 5197 5203 5209 5214 5218 5222 5227 5230 5234
5042 5039 5036 5033 5031 5028 5026 5024 5022 5019 5017 5016 5014 5012 5010 5009 5008 5006 5005 5004 5003 5002 5001 5000 5000 5000 5000 5001 5001 5002 5004 5005 5006 5008 5010 5013 5016 5019 5024 5029 5033 5037 5040 5042 5046 5050 5055 5061 5067 5073 5080 5088 5097 5104 5111 5119 5128 5136 5143 5151 5158 5165 5172 5180 5186 5192 5198 5203 5207 5212 5216 5220 5224 5228
5038 5035 5032 5030 5027 5025 5023 5020 5018 5016 5015 5013 5011 5009 5008 5007 5005 5004 5003 5002 5001 5000 4999 4998 4997 4997 4998 4998 4999 5000 5001 5003 5004 5006 5008 5010 5013 5017 5022 5027 5031 5034 5037 5040 5044 5048 5053 5058 5064 5071 5079 5086 5094 5101 5109 5117 5126 5133 5141 5148 5155 5162 5169 5175 5182 5187 5192 5197 5201 5206 5210 5214 5219 5223
5034 5032 5029 5027 5024 5022 5019 5017 5015 5013 5012 5010 5009 5007 5006 5005 5004 5003 5002 5001 5000 4999 4998 4997 4996 4996 4996 4997 4997 4999 5000 5001 5003 5005 5007 5010 5013 5017 5021 5025 5029 5032 5035 5038 5042 5047 5052 5057 5063 5070 5077 5084 5092 5100 5108 5116 5124 5132 5139 5146 5152 5159 5166 5172 5177 5183 5187 5192 5196 5200 5205 5209 5214 5217
5032 5029 5026 5023 5020 5018 5016 5013 5012 5010 5009 5008 5007 5006 5004 5003 5003 5002 5001 5000 5000 4999 4998 4996 4995 4995 4995 4995 4996 4997 4998 5000 5002 5004 5006 5009 5013 5017 5021 5024 5027 5031 5034 5037 5041 5045 5050 5055 5061 5068 5076 5084 5092 5100 5108 5116 5123 5130 5137 5143 5150 5156 5163 5168 5173 5178 5183 5187 5191 5196 5200 5205 5208 5212
5028 5025 5022 5019 5017 5014 5012 5011 5009 5008 5007 5006 5005 5004 5003 5002 5002 5001 5001 5000 4999 4999 4998 4997 4995 4994 4994 4994 4995 4996 4997 4999 5001 5003 5006 5009 5013 5017 5020 5024 5027 5030 5033 5036 5040 5045 5050 5055 5061 5068 5076 5084 5092 5100 5108 5115 5121 5128 5135 5141 5147 5153 5159 5165 5170 5174 5178 5183 5187 5192 5196 5200 5204 5207
5025 5022 5019 5016 5014 5012 5010 5008 5007 5005 5005 5004 5003 5002 5001 5001 5001 5000 5000 4999 4999 4998 4998 4997 4996 4995 4995 4994 4995 4996 4997 4999 5001 5003 5006 5009 5012 5015 5019 5022 5026 5029 5032 5036 5041 5045 5050 5055 5062 5069 5076 5084 5092 5100 5107 5114 5120 5127 5133 5139 5145 5150 5156 5161 5166 5170 5174 5179 5184 5188 5192 5196 5199 5202
5022 5019 5016 5014 5011 5009 5007 5006 5004 5003 5002 5002 5001 5001 5000 4999 4999 4999 4999 4999 4998 4998 4998 4997 4997 4997 4996 4996 4996 4997 4998 5000 5002 5004 5006 5008 5012 5015 5018 5022 5025 5029 5032 5036 5041 5045 5051 5057 5064 5070 5077 5084 5092 5099 5105 5112 5119 5125 5131 5137 5143 5148 5153 5158 5162 5167 5171 5176 5180 5184 5188 5191 5194 5198
5019 5017 5014 5012 5009 5007 5005 5004 5002 5001 5000 4999 4999 4998 4998 4997 4997 4997 4997 4997 4997 4997 4997 4997 4997 4997 4997 4998 4998 4998 4999 5000 5003 5005 5007 5009 5012 5015 5019 5022 5025 5029 5032 5037 5041 5047 5052 5058 5065 5071 5079 5086 5093 5099 5106 5113 5119 5125 5130 5136 5141 5146 5151 5156 5160 5164 5168 5172 5176 5180 5184 5187 5191 5195
5017 5014 5012 5009 5007 5005 5004 5002 5001 4999 4998 4997 4996 4996 4996 4996 4995 4995 4996 4996 4996 4996 4996 4996 4996 4996 4997 4998 4999 5000 5001 5002 5003 5005 5008 5011 5013 5016 5019 5022 5025 5029 5033 5038 5043 5048 5054 5060 5067 5074 5081 5087 5093 5099 5105 5111 5117 5123 5128 5134 5139 5144 5149 5153 5157 5162 5166 5170 5173 5177 5181 5185 5188 5192
5015 5012 5010 5007 5005 5004 5002 5000 4999 4998 4997 4995 4994 4994 4994 4994 4994 4994 4994 4994 4994 4995 4995 4995 4996 4996 4997 4997 4999 5000 5001 5003 5004 5006 5008 5011 5014 5016 5019 5023 5026 5030 5035 5040 5045 5050 5056 5063 5070 5076 5081 5087 5092 5098 5104 5109 5115 5121 5127 5132 5137 5142 5146 5151 5155 5160 5164 5168 5171 5175 5179 5183 5186 5190
5013 5011 5008 5006 5004 5002 5001 4999 4998 4997 4996 4995 4994 4993 4993 4993 4993 4993 4993 4993 4994 4994 4994 4995 4995 4996 4997 4998 4999 5000 5002 5003 5005 5007 5009 5012 5015 5018 5021 5024 5028 5032 5037 5042 5047 5053 5059 5065 5070 5075 5081 5087 5093 5098 5104 5110 5116 5121 5126 5131 5136 5140 5145 5150 5154 5158 5162 5166 5170 5174 5177 5181 5184 5188
5012 5009 5007 5004 5002 5001 4999 4998 4997 4996 4995 4994 4993 4993 4992 4992 4993 4993 4993 4993 4993 4994 4994 4995 4996 4996 4997 4998 5000 5001 5003 5005 5007 5008 5011 5013 5016 5019 5023 5027 5031 5035 5039 5045 5050 5056 5061 5066 5072 5077 5083 5089 5095 5100 5106 5111 5116 5121 5126 5131 5135 5140 5145 5149 5153 5157 5161 5165 5169 5172 5176 5179 5183 5186
5011 5008 5006 5003 5001 5000 4999 4998 4996 4996 4995 4994 4993 4993 4993 4993 4993 4993 4993 4993 4994 4994 4995 4996 4996 4997 4998 5000 5001 5003 5005 5007 5009 5011 5013 5016 5019 5022 5026 5030 5034 5038 5043 5048 5053 5059 5064 5069 5074 5080 5086 5091 5097 5102 5107 5112 5117 5121 5126 5131 5135 5140 5144 5148 5153 5157 5160 5164 5168 5171 5174 5178 5181 5184
5010 5007 5005 5003 5001 5000 4998 4997 4996 4995 4995 4994 4993 4993 4993 4993 4994 4994 4994 4994 4995 4995 4996 4997 4998 4999 5000 5002 5003 5005 5008 5010 5012 5014 5016 5019 5022 5025 5029 5033 5037 5042 5047 5052 5057 5062 5067 5072 5077 5083 5088 5093 5098 5103 5108 5112 5117 5122 5126 5131 5135 5139 5144 5148 5152 5156 5159 5163 5166 5170 5173 5177 5180 5183
5009 5007 5005 5003 5001 5000 4998 4997 4996 4995 4995 4994 4994 4994 4994 4995 4995 4995 4996 4996 4997 4997 4998 4999 5000 5002 5003 5005 5006 5008 5011 5014 5016 5018 5020 5023 5026 5029 5033 5037 5041 5046 5051 5056 5060 5065 5070 5075 5080 5085 5090 5094 5099 5104 5109 5113 5117 5122 5126 5131 5135 5139 5143 5147 5151 5155 5158 5162 5166 5169 5172 5175 5178 5181
Wind_Speed
106 107 108 108 108 109 109 110 110 111 112 112 113 114 115 116 116 116 115 114 112 112 113 114 113 111 111 110 110 110 110 109 109 109 108 108 107 106 104 102 100 99 98 97 96 95 94 93 93 93 91 88 87 86 86 86 86 86 85 84 84 84 84 82 81 80 79 79 79 79 79 79 79 80
106 107 108 109 109 110 111 111 112 112 113 114 115 116 117 118 119 120 120 119 116 115 115 116 116 115 115 114 113 112 112 111 111 112 111 110 110 109 108 106 104 102 101 100 99 98 96 95 95 95 93 91 89 88 87 87 87 87 87 86 86 86 85 85 84 83 82 81 80 80 79 79 79 80
100 101 102 104 105 107 108 109 110 111 112 114 115 117 118 119 120 122 124 123 121 119 119 119 118 118 118 118 117 116 115 114 114 114 114 113 112 112 111 110 109 106 104 102 101 100 99 97 96 96 95 94 92 90 89 88 87 88 88 88 88 88 87 86 86 85 84 83 82 81 81 80 79 79
92 93 94 96 97 99 101 102 104 105 107 109 111 113 114 116 118 121 124 126 124 123 123 123 122 121 122 122 122 120 119 118 117 117 116 116 115 114 114 113 112 111 109 106 104 103 102 101 99 98 97 96 95 94 92 90 90 89 89 89 89 89 89 88 87 87 86 85 84 83 82 81 80 79
91 92 92 93 94 96 97 98 99 101 102 103 105 107 109 110 112 115 119 123 125 124 125 125 125 124 125 125 125 125 124 122 122 121 120 119 118 117 116 116 115 114 113 111 108 106 105 104 102 100 99 98 97 97 95 94 93 92 92 91 91 90 90 90 89 88 87 86 86 85 84 83 81 80
95 96 96 96 97 99 99 100 101 101 102 103 104 105 106 107 108 110 113 116 119 120 121 122 123 124 126 126 127 127 127 127 126 125 124 123 121 120 119 119 118 117 117 116 113 111 108 107 105 103 101 100 100 99 98 97 96 96 95 95 94 93 92 91 91 90 89 88 87 87 86 85 84 82
97 98 98 98 99 101 101 102 103 104 104 106 106 107 108 109 109 110 112 114 115 115 115 116 117 119 121 123 125 126 127 128 128 128 127 126 125 124 123 122 121 120 119 119 118 115 113 111 109 106 104 103 102 102 101 100 100 99 99 98 97 96 95 94 93 92 91 90 89 88 88 87 86 85
97 98 98 98 99 101 101 102 103 104 105 106 107 108 109 110 111 112 114 115 116 116 114 113 112 113 115 117 118 120 122 124 125 127 128 128 127 126 125 125 124 123 122 122 122 120 118 115 113 111 108 105 104 104 104 103 103 102 102 101 100 99 98 96 95 94 94 93 91 90 89 88 88 87
95 96 96 96 97 98 99 99 100 101 102 104 106 107 108 109 111 112 113 115 116 117 116 114 112 112 113 114 114 115 116 118 119 121 123 124 125 125 125 124 123 123 124 124 125 124 122 119 117 115 112 109 107 106 107 106 105 104 104 104 103 102 101 99 98 97 96 95 94 92 90 89 89 88
89 90 90 90 91 92 92 93 93 94 96 97 99 101 102 104 106 108 109 111 113 115 115 115 113 113 114 115 115 114 114 115 115 115 115 116 118 120 121 121 120 120 120 122 124 125 125 123 121 118 116 113 110 108 109 109 108 106 106 106 106 105 104 103 102 100 99 97 96 95 93 91 90 89
80 81 81 82 82 83 84 85 86 87 88 90 92 93 95 97 98 100 102 103 106 108 109 110 110 110 111 114 115 114 115 116 116 114 113 113 114 115 116 116 116 115 115 116 119 121 123 124 123 121 118 116 114 111 110 111 111 109 108 108 108 108 106 105 105 104 102 101 99 98 96 94 93 92
70 69 70 70 71 72 73 74 76 78 80 82 83 84 86 88 90 92 93 95 97 99 100 102 103 104 105 107 109 110 111 113 114 115 116 116 114 114 114 113 113 112 112 112 113 115 119 121 122 121 119 117 116 113 110 112 113 112 110 109 109 109 109 108 107 106 105 104 102 101 99 98 97 96
56 56 56 56 57 58 60 61 63 65 68 71 72 73 75 77 79 81 83 85 87 89 91 92 94 95 97 97 99 101 103 104 107 111 114 115 115 115 115 115 113 112 111 110 109 110 112 116 118 119 118 116 115 112 109 110 112 113 112 111 110 111 111 110 109 109 108 107 106 104 103 102 101 100
45 46 47 47 48 49 50 52 53 55 58 60 61 61 62 64 67 69 71 72 74 77 79 81 83 86 87 87 89 92 93 95 98 102 105 107 110 112 114 114 113 112 112 112 110 108 108 110 112 114 114 113 112 109 106 106 109 111 112 111 110 110 111 111 111 111 110 109 108 107 106 105 104 103
41 42 43 43 44 46 47 49 50 52 54 55 55 55 54 55 57 60 61 61 63 64 66 67 70 72 73 73 75 79 82 85 87 91 94 98 101 104 107 108 108 109 111 113 113 111 109 109 110 110 110 109 107 105 102 101 103 107 109 110 110 110 111 112 113 113 113 112 111 110 109 108 107 106
40 40 40 41 42 43 45 47 48 50 52 54 54 54 54 54 55 55 56 56 57 58 58 57 57 58 58 57 58 62 66 69 72 76 81 85 89 93 97 99 100 101 104 109 112 112 111 111 112 110 108 106 104 102 100 98 99 102 105 107 108 109 110 111 113 114 115 114 113 113 112 110 109 108
39 38 38 39 40 41 43 46 48 49 51 52 53 53 53 53 54 55 55 55 55 55 55 53 51 51 51 49 48 52 57 60 61 63 66 70 73 78 84 88 90 91 95 102 107 109 110 111 112 111 109 106 104 102 100 98 97 98 100 102 104 106 108 109 111 113 114 114 114 114 113 113 111 110
38 38 38 38 39 41 43 45 47 48 49 50 51 51 51 51 52 53 53 54 54 54 53 53 51 52 53 51 50 53 58 60 60 60 61 63 64 68 71 75 79 82 86 93 100 103 104 107 109 110 109 107 106 104 101 100 99 98 99 100 101 103 105 106 108 110 111 112 113 113 114 114 113 112
38 38 38 39 39 40 42 44 46 47 47 48 48 49 50 50 51 51 52 52 53 54 54 54 53 53 55 55 55 58 62 64 64 63 64 64 64 65 66 66 67 69 73 81 89 94 96 99 103 105 106 107 107 106 104 102 101 101 101 101 100 100 101 103 104 105 107 108 110 111 112 113 114 113
38 38 39 39 40 40 42 44 45 46 46 47 47 48 50 51 52 52 53 54 55 56 56 56 56 56 57 58 59 60 63 64 64 65 66 66 66 66 65 62 59 58 61 68 77 83 87 90 94 97 99 102 105 106 105 105 103 103 103 102 100 99 99 99 100 101 102 103 105 107 109 111 112 113
37 38 39 40 40 41 41 43 44 46 47 48 48 49 50 51 52 52 52 54 54 54 54 55 55 55 56 57 57 58 60 60 60 62 63 62 64 66 65 61 57 54 56 61 67 72 77 80 85 88 90 94 99 103 104 104 103 103 103 102 101 100 99 98 97 97 97 98 99 101 103 106 108 110
36 37 39 40 41 41 41 43 44 46 48 49 49 49 49 49 49 48 48 48 48 49 51 51 52 52 53 54 55 55 56 56 57 58 56 54 56 62 64 63 58 54 53 55 60 65 68 71 75 79 82 86 91 96 99 100 101 100 100 100 100 100 99 98 96 95 94 94 94 94 96 99 102 105
36 38 39 39 40 41 42 43 44 46 47 48 48 47 47 46 44 42 42 44 45 47 48 48 49 51 51 52 53 53 53 52 54 54 51 47 48 54 60 63 59 52 48 50 55 59 61 63 67 72 76 80 83 87 90 92 94 94 94 95 95 95 96 96 95 94 92 91 91 91 91 92 95 98
36 37 38 38 39 40 42 43 44 44 45 46 45 45 44 43 41 40 42 45 46 47 46 46 47 48 49 50 50 51 50 49 49 49 47 44 44 48 56 61 57 48 45 47 52 54 55 58 62 66 70 74 76 78 79 81 83 84 85 87 88 89 90 91 91 90 90 89 89 88 88 88 89 92
36 36 36 36 38 39 40 40 41 42 43 44 44 43 42 41 40 41 43 44 43 43 43 43 44 45 45 46 46 47 47 46 45 44 44 44 44 45 51 56 53 45 43 46 49 50 53 56 59 62 66 69 69 69 69 71 73 75 76 78 80 81 83 84 85 86 86 86 85 84 84 84 85 86
34 34 34 35 36 36 35 35 36 37 38 40 41 41 40 40 39 39 40 39 38 37 38 39 40 40 40 41 42 43 44 43 41 41 41 43 44 43 46 51 49 42 40 44 46 47 51 54 57 60 63 62 61 60 61 64 67 69 70 71 72 74 76 78 79 80 80 80 80 79 78 78 79 80
33 33 34 34 33 32 31 31 31 32 34 35 37 38 38 37 36 35 35 34 34 33 34 35 36 36 37 38 39 40 40 39 39 39 40 41 41 40 42 46 44 39 39 42 43 44 48 52 54 56 56 55 55 56 58 60 63 65 66 67 67 69 70 72 73 74 74 73 72 71 71 71 72 73
33 33 34 33 31 30 30 30 31 32 33 33 34 34 34 32 31 30 30 31 31 31 31 32 32 33 33 34 35 36 36 36 36 37 37 38 37 37 39 41 39 36 37 38 38 39 44 47 48 49 49 51 53 55 56 58 60 62 63 63 64 64 65 66 67 67 66 65 64 63 63 63 64 65
33 34 34 33 31 31 31 31 32 32 31 30 30 29 27 25 25 25 25 26 27 27 27 27 27 27 28 29 31 31 31 31 32 33 33 33 33 33 35 37 35 34 35 35 35 36 39 41 42 44 47 50 52 53 54 57 58 59 59 59 60 60 60 60 60 60 59 58 56 55 55 55 56 57
34 34 34 33 32 31 31 31 31 30 28 26 25 23 21 19 20 20 21 21 21 22 22 22 22 22 24 25 25 26 25 26 27 28 29 29 29 30 32 33 33 33 34 34 34 35 35 36 40 44 47 48 50 51 53 54 55 55 55 55 56 56 56 55 54 53 52 51 50 49 49 50 50 51
34 34 33 31 30 30 30 30 29 26 23 22 20 18 16 16 16 16 16 17 17 17 17 17 18 18 19 20 20 20 21 22 24 25 26 26 27 28 30 31 30 30 31 32 33 33 34 36 40 44 46 47 49 50 51 52 52 52 52 52 53 52 51 50 50 49 47 47 47 46 46 47 47 48
33 32 31 29 28 28 27 27 25 22 20 19 16 14 14 13 13 13 13 13 14 14 14 14 15 15 14 14 14 15 15 17 19 21 22 24 25 27 28 28 28 27 28 30 33 34 35 37 41 43 45 47 48 49 50 50 50 49 49 49 49 49 48 47 46 46 46 46 46 46 46 46 46 46
31 30 28 27 26 26 25 24 22 19 18 17 14 12 11 11 11 11 12 12 12 13 13 12 12 12 11 10 9 10 10 12 15 18 19 22 25 27 27 27 26 27 28 30 32 34 36 38 41 43 45 47 48 49 49 48 47 46 46 46 46 46 45 44 45 45 45 45 45 45 44 43 43 43
29 28 27 25 24 24 23 22 19 17 17 16 14 11 10 10 10 9 10 11 12 11 10 10 10 10 10 10 9 9 10 12 15 18 20 22 24 25 25 25 26 26 28 29 32 35 38 40 42 44 45 46 47 47 47 46 45 45 44 44 44 44 43 43 43 43 43 42 42 41 40 40 41 41
28 27 26 25 24 23 22 20 18 15 15 15 13 11 10 11 10 9 9 9 9 10 9 7 8 10 11 11 11 11 13 15 18 20 21 22 22 23 23 24 25 26 28 31 34 36 39 41 42 44 44 45 46 46 45 44 44 44 43 43 43 42 41 41 40 39 39 39 38 38 38 38 39 40
27 26 25 24 22 21 20 19 17 14 13 13 13 11 11 11 11 10 9 9 7 7 7 6 6 8 11 13 13 13 15 18 20 21 22 23 24 24 25 25 26 27 29 32 34 37 39 41 42 43 44 45 45 45 44 43 43 42 42 42 41 40 39 38 37 37 37 37 36 36 36 36 37 38
26 25 23 22 21 20 19 18 17 14 11 11 11 11 10 11 11 10 9 8 8 7 6 6 6 7 9 12 14 16 17 18 20 22 23 24 25 25 26 26 27 28 31 33 36 38 40 40 42 43 45 45 45 44 43 43 42 41 41 40 38 37 37 36 36 35 35 34 34 34 33 34 35 36
25 23 21 19 18 18 18 17 16 13 10 9 9 9 9 9 10 10 8 7 7 7 7 7 7 7 8 10 13 15 17 18 18 20 22 24 24 25 26 27 29 31 34 36 38 40 41 42 43 45 45 44 43 42 42 41 40 40 39 38 36 35 35 34 33 32 31 31 31 31 31 32 32 32
22 21 20 18 16 16 16 16 15 13 10 8 8 8 8 8 8 8 7 6 5 6 6 7 8 8 8 9 11 13 15 16 17 18 19 21 23 25 27 29 32 34 36 38 40 41 42 44 44 43 42 42 42 42 41 40 40 39 38 36 34 33 33 32 31 29 29 29 29 29 30 30 30 30
20 19 18 17 15 14 14 14 14 12 10 7 6 6 6 6 6 6 5 5 4 4 5 6 7 8 8 9 11 12 14 16 18 18 19 22 24 27 29 31 34 36 38 39 40 42 42 42 42 41 42 42 42 42 42 41 40 38 36 35 33 32 31 30 29 28 28 28 29 29 29 29 30 30
19 18 17 16 15 13 12 11 11 10 9 6 4 3 3 3 3 3 3 3 3 3 4 5 6 7 8 9 11 14 16 17 19 20 21 24 27 29 32 34 35 37 38 40 41 41 41 42 42 43 43 43 42 42 41 39 37 36 35 33 32 31 29 29 29 29 29 29 29 29 29 29 29 29
19 17 16 16 14 13 11 9 8 7 6 4 2 0 1 2 2 3 3 4 4 5 6 6 7 7 8 10 12 14 16 18 20 22 24 27 30 31 33 35 36 38 40 40 41 42 43 43 44 44 43 42 41 40 38 36 35 34 33 31 30 29 29 29 29 29 29 29 29 29 28 28 28 27
18 17 16 15 14 12 10 8 5 4 2 0 2 3 4 4 4 5 6 6 7 8 9 10 10 10 10 11 12 14 16 18 21 24 27 30 32 33 35 36 38 39 40 41 42 43 44 44 43 42 41 40 39 38 36 35 33 32 30 29 29 29 29 29 29 29 29 28 28 28 28 27 27 27
17 17 16 15 14 11 8 6 4 2 2 3 4 5 6 6 7 8 9 10 11 12 13 13 12 12 12 13 14 16 17 20 23 27 29 31 33 35 36 37 38 39 41 42 43 43 43 43 42 41 40 39 37 36 34 33 32 30 29 29 29 29 29 29 28 28 28 28 27 27 27 26 26 26
16 17 16 15 12 9 6 4 3 4 4 6 7 8 8 9 9 11 12 13 14 15 15 15 15 15 16 16 17 18 20 22 25 28 30 32 34 36 37 39 39 40 41 42 42 42 42 41 40 39 38 37 36 34 32 31 31 31 30 30 29 29 29 29 28 28 28 27 27 26 26 25 25 24
Wind_Direction
267 267 266 266 266 266 266 265 265 265 264 264 263 263 263 262 261 259 258 257 257 257 257 257 256 255 255 254 254 254 254 254 254 254 254 254 254 254 254 254 253 252 252 252 251 251 251 251 252 252 250 249 248 248 248 249 249 248 248 247 247 247 246 244 242 241 240 239 240 240 241 242 242 243
267 267 267 266 266 266 265 265 265 265 265 264 264 264 263 263 262 261 259 257 256 256 256 256 256 256 256 255 254 254 254 254 254 254 253 253 253 254 254 253 253 252 252 251 251 251 251 251 251 251 251 250 248 247 247 247 247 247 247 246 245 245 245 245 243 242 240 239 239 239 240 240 241 242
267 267 267 267 266 266 265 265 265 265 265 264 264 264 264 263 263 262 261 259 257 256 257 256 256 256 256 256 255 254 254 254 253 253 253 253 253 253 253 253 253 252 251 251 251 251 251 250 250 250 251 250 249 248 247 245 245 245 245 245 245 244 244 244 244 243 241 240 238 238 239 239 239 240
268 268 267 267 267 267 266 266 266 265 265 265 264 264 264 263 263 263 262 261 258 257 257 257 256 256 256 256 255 255 254 254 254 254 253 253 252 252 252 252 252 252 251 251 250 250 250 250 249 249 250 250 250 249 247 246 244 244 244 244 244 244 243 243 243 243 242 241 240 238 238 238 238 238
270 269 269 269 268 268 267 267 266 266 266 265 265 265 264 264 263 263 263 262 260 258 258 258 257 256 256 256 256 255 255 254 254 254 254 253 253 252 252 252 252 252 251 251 250 249 249 248 248 248 248 249 249 249 248 247 245 244 243 243 243 243 243 243 242 242 242 242 241 240 239 238 237 237
271 271 270 270 269 268 268 267 267 266 266 265 265 265 265 264 264 264 263 263 262 260 258 258 258 257 256 256 255 255 255 254 254 254 254 254 254 253 252 252 251 251 251 251 250 249 248 248 247 247 247 247 247 248 248 247 246 245 244 243 243 242 243 243 242 242 241 241 241 240 240 239 238 237
272 271 271 270 269 268 268 267 267 266 265 265 265 264 264 264 263 263 263 263 263 262 260 259 258 258 257 257 256 255 255 254 254 254 254 254 254 254 253 253 252 251 251 251 250 250 249 248 248 246 245 245 246 246 246 246 246 246 245 245 244 243 242 242 242 242 242 241 240 240 240 240 239 238
272 271 271 270 269 268 268 267 266 266 265 265 264 264 263 263 262 262 262 262 262 262 261 260 259 258 258 257 257 256 255 254 254 253 253 253 253 253 253 253 252 252 252 251 251 250 249 248 248 247 246 245 245 245 245 245 245 246 246 246 245 244 243 243 242 242 242 241 240 240 239 240 240 240
273 272 272 271 270 269 269 268 267 266 265 264 264 263 262 262 261 261 261 261 261 261 261 260 259 259 258 258 257 256 256 255 254 253 253 252 252 252 251 252 252 251 251 251 251 250 250 249 248 247 246 245 244 244 244 244 244 244 245 246 245 245 245 244 243 242 241 241 241 240 239 239 240 240
274 273 273 272 271 270 269 268 267 266 266 265 264 263 263 262 261 261 261 260 260 260 260 259 259 258 258 258 258 257 257 256 255 254 253 253 252 251 251 250 250 250 250 250 250 250 250 249 248 247 246 245 243 243 244 244 243 243 243 244 245 245 245 245 244 243 242 241 241 240 240 239 240 240
275 274 273 272 271 270 269 268 267 266 265 264 264 263 263 262 262 262 261 261 261 260 260 260 259 258 257 257 257 257 256 256 256 255 254 253 253 252 251 250 249 249 248 248 249 249 249 248 248 247 246 245 244 242 242 243 243 242 242 243 244 244 245 245 245 244 243 242 241 241 240 239 239 240
276 274 273 272 271 270 268 267 266 266 265 264 263 263 263 262 262 262 262 261 261 261 260 260 259 258 257 256 257 256 256 256 256 255 254 253 252 252 251 250 249 248 248 247 247 247 247 247 247 246 245 245 244 242 241 242 243 242 241 242 242 243 244 244 244 244 244 243 242 241 241 240 240 240
277 275 274 272 271 270 269 268 267 266 265 264 264 263 263 263 263 262 262 261 261 261 261 260 260 259 258 257 257 256 256 255 255 254 254 253 252 251 251 250 249 249 248 247 246 246 246 247 246 245 245 244 243 242 241 241 242 242 241 241 241 242 243 243 244 244 244 244 243 242 241 241 240 240
277 275 274 273 272 272 271 270 269 268 267 266 266 264 264 264 264 264 263 263 263 262 262 261 260 260 259 258 257 257 257 256 255 254 254 254 252 251 250 249 248 248 248 247 246 245 245 245 245 245 244 243 242 242 240 240 240 241 240 240 240 241 241 242 242 243 243 243 243 243 242 242 241 241
275 274 274 274 274 273 272 271 271 270 270 270 269 268 266 265 264 264 265 265 264 264 263 261 261 260 260 259 258 258 257 256 255 255 254 254 252 252 251 249 247 247 248 247 246 244 243 243 244 244 243 242 241 240 239 239 239 239 239 239 239 239 240 240 240 241 241 242 242 242 242 242 242 241
279 278 277 276 274 273 272 271 270 270 269 269 269 269 268 267 266 265 265 264 263 263 263 262 262 262 261 258 257 257 257 256 255 254 254 254 253 252 251 250 248 246 247 246 245 244 242 242 242 242 242 241 240 239 238 237 237 238 238 238 238 238 238 239 239 240 240 240 241 242 242 242 242 242
284 282 279 277 276 274 273 272 271 270 269 269 269 269 268 267 267 266 265 264 263 263 263 263 263 262 261 258 256 255 256 255 254 253 253 253 253 252 251 249 247 245 245 245 244 243 241 241 241 240 240 240 239 238 237 236 235 236 237 237 237 237 237 237 238 238 239 240 240 241 241 242 242 242
286 285 282 280 278 276 275 273 272 271 270 270 270 270 270 269 267 267 266 266 265 264 263 262 261 260 259 258 256 255 255 255 254 253 253 253 252 251 250 248 246 243 243 244 244 242 241 240 240 239 238 238 238 237 236 235 234 235 236 236 236 236 236 236 237 237 238 238 239 240 241 241 242 242
289 287 285 283 280 278 276 275 274 273 272 272 271 271 272 271 270 269 269 268 268 267 265 264 262 259 258 257 255 254 254 255 255 254 253 252 252 252 251 249 247 244 243 245 244 242 240 240 239 238 237 237 237 236 235 234 234 233 234 235 235 235 236 236 237 237 237 238 238 238 239 240 241 242
290 289 288 285 282 280 278 277 276 276 275 274 273 273 272 272 272 272 271 270 269 268 267 266 265 263 261 259 257 255 254 254 254 254 253 252 252 252 252 251 249 246 244 245 244 241 239 239 239 238 236 235 235 235 234 234 233 233 233 234 234 235 235 236 237 237 237 237 237 238 238 239 240 241
291 290 288 285 283 282 281 280 280 280 278 277 276 275 274 273 273 273 272 271 271 271 270 269 267 266 264 262 261 259 258 256 254 252 251 251 252 252 252 251 249 246 244 244 244 241 237 237 238 237 236 235 234 234 233 233 233 232 232 233 234 234 235 235 236 237 237 237 237 237 238 239 240 241
291 289 287 285 285 284 284 283 283 282 281 280 279 277 276 274 274 274 274 274 274 272 271 269 268 267 265 264 262 261 260 259 257 254 251 249 249 250 250 250 247 245 244 246 246 242 237 235 235 235 234 233 232 232 232 232 232 232 232 232 233 234 234 235 236 236 237 237 238 238 238 238 239 240
290 288 287 287 287 287 286 286 284 283 282 282 281 280 279 279 279 279 276 273 269 267 266 267 267 267 266 264 263 262 261 260 260 258 254 249 246 245 245 247 246 244 245 246 246 243 237 232 232 232 231 231 231 231 231 231 231 231 231 231 232 232 233 234 235 236 236 237 238 238 238 239 239 240
290 290 290 290 291 290 290 289 287 286 285 284 284 283 283 282 281 277 272 269 268 267 267 266 265 264 264 264 263 263 261 259 258 259 256 251 245 240 241 244 245 242 242 243 243 241 235 231 229 229 229 229 229 229 229 229 229 229 229 229 230 230 232 233 234 235 236 237 237 238 239 239 240 240
291 292 292 293 294 293 292 290 288 288 287 287 287 287 285 283 280 276 273 273 272 272 270 267 264 262 262 261 261 261 260 257 255 254 253 250 245 238 238 242 242 239 238 241 242 239 233 228 226 226 226 226 226 226 225 225 226 225 224 225 227 227 229 231 232 233 234 235 236 237 238 238 239 240
294 295 295 296 296 293 289 286 285 286 287 288 288 288 286 284 281 278 276 275 273 271 269 267 266 264 262 260 259 259 258 256 252 249 247 246 244 239 236 239 239 235 234 238 239 236 232 227 224 223 223 223 222 221 220 220 220 220 220 221 223 223 225 227 229 231 232 233 234 236 236 237 238 239
299 300 300 300 297 293 290 288 289 290 290 290 289 288 286 284 281 279 277 275 273 272 270 268 265 263 260 258 257 256 255 253 248 245 242 242 242 238 235 236 235 230 230 234 235 232 229 226 223 223 221 218 216 214 214 213 214 215 215 216 218 220 222 223 225 227 229 231 232 233 234 235 237 237
304 304 304 304 303 302 301 301 300 299 296 294 290 287 284 281 280 279 278 277 275 273 270 266 262 259 257 255 254 252 251 248 245 242 240 240 239 236 233 232 229 226 228 230 230 228 226 223 221 220 218 214 211 209 208 208 210 211 211 212 214 216 219 221 222 225 227 228 229 231 232 234 235 237
308 310 311 312 311 310 308 307 304 301 298 294 289 285 281 280 280 280 278 277 276 275 270 265 260 257 254 251 249 248 246 243 241 239 238 238 236 233 229 226 222 221 224 223 220 221 221 219 217 215 213 210 207 204 204 205 207 208 209 210 212 214 216 218 220 222 224 225 227 228 230 232 234 235
314 316 317 316 314 311 309 306 303 301 299 294 289 285 284 285 285 284 283 283 282 278 272 264 257 253 249 246 244 242 241 238 236 235 234 233 231 227 222 218 215 218 220 217 213 212 212 211 210 209 208 205 202 200 201 203 204 205 206 208 209 211 213 215 217 220 221 222 224 226 228 230 231 233
317 318 318 315 312 309 307 304 303 302 299 293 288 286 287 288 288 288 292 294 291 284 275 263 253 246 242 239 236 236 235 234 232 230 228 225 220 215 212 210 211 215 216 211 207 204 203 203 204 204 202 200 198 197 199 201 201 202 203 205 206 208 210 212 214 216 218 219 221 223 226 228 229 229
317 317 315 313 309 307 306 305 304 302 297 289 286 286 288 289 293 299 306 310 305 293 279 263 248 236 229 226 226 227 229 230 229 225 220 213 207 203 203 204 207 209 209 205 201 199 197 198 198 198 196 195 194 195 196 197 198 200 201 202 203 205 206 208 210 212 214 217 220 223 225 226 226 226
316 315 314 313 311 309 309 307 305 302 296 288 284 286 287 290 297 307 314 317 311 296 277 257 238 220 205 201 206 211 217 224 224 217 208 202 197 196 197 199 201 202 202 200 197 194 193 193 193 193 192 191 191 192 192 193 195 197 198 199 201 202 204 205 207 210 213 217 220 222 222 223 223 224
316 316 317 317 315 313 311 309 306 302 297 289 283 282 283 285 289 297 305 312 313 303 282 250 223 202 183 175 181 190 200 212 212 202 194 193 193 194 195 196 196 196 195 193 191 190 189 189 189 188 188 187 187 188 188 190 192 194 195 197 199 201 202 204 207 210 214 217 218 219 219 219 221 223
320 320 321 320 317 315 313 308 304 300 295 289 283 277 277 281 284 282 282 291 304 307 294 260 219 193 176 168 172 184 194 201 199 191 185 186 188 190 191 191 191 191 190 189 187 186 185 185 185 184 183 183 183 183 185 188 190 192 193 196 198 199 201 204 207 210 212 214 215 216 217 219 222 224
323 324 323 321 319 316 313 307 301 295 289 286 283 277 274 280 287 284 276 273 280 289 289 271 234 201 182 173 172 179 187 191 188 183 180 181 182 183 184 185 186 186 185 183 182 181 181 180 180 178 178 178 179 180 183 186 188 189 192 194 196 198 199 202 204 206 208 210 213 215 217 220 221 223
326 324 322 320 319 317 313 306 298 289 280 276 277 276 274 279 287 290 285 277 271 268 265 259 241 215 196 184 178 177 180 183 182 180 179 179 180 180 180 180 181 181 179 177 176 176 175 175 174 174 174 175 176 179 182 184 185 187 190 192 194 196 197 199 201 204 207 209 212 214 216 218 219 220
325 323 322 322 320 318 313 306 298 288 275 263 263 267 271 275 282 289 291 285 275 265 258 252 243 224 207 196 187 181 178 178 179 181 181 179 177 177 176 176 176 175 173 172 171 171 170 171 171 172 172 173 176 178 180 181 183 185 187 188 190 193 195 197 200 203 206 209 211 212 212 214 215 215
325 324 324 325 324 321 316 308 299 289 276 259 251 252 258 264 270 276 282 282 273 261 252 248 242 231 216 203 193 185 181 177 176 179 181 179 175 174 173 173 172 170 169 168 168 168 168 169 169 169 170 172 174 175 176 177 180 182 183 185 187 190 194 196 199 200 202 205 207 208 208 209 209 210
331 329 329 329 328 324 319 310 300 291 283 269 253 245 247 252 258 263 268 269 262 247 235 229 227 222 214 203 190 184 182 180 176 175 178 177 173 170 169 169 168 166 165 165 166 166 166 166 166 167 169 170 171 172 173 175 177 178 179 180 184 188 192 194 195 195 197 199 201 202 203 204 205 206
336 336 335 334 332 328 322 314 304 295 288 282 272 257 250 250 247 244 241 232 217 203 198 198 198 197 197 192 183 180 180 179 175 172 171 170 168 166 165 164 162 161 162 163 164 164 163 163 164 166 167 168 169 170 172 173 174 175 177 180 183 187 189 190 190 191 192 195 197 199 200 201 202 204
341 343 343 341 336 331 325 318 309 299 293 292 296 245 178 181 182 179 173 169 161 155 154 156 160 166 173 174 173 174 176 174 170 166 164 164 163 162 160 159 159 160 162 162 162 161 161 162 163 164 165 166 167 168 170 171 172 175 178 181 183 184 185 186 188 190 191 193 195 197 198 199 201 203
346 350 351 348 342 336 330 326 325 320 318 42 113 125 135 139 143 144 142 140 138 136 135 136 138 143 150 155 157 162 167 167 164 161 159 159 158 158 158 158 159 159 159 159 158 159 160 160 161 161 162 164 165 166 168 170 172 175 177 179 179 181 183 185 187 189 190 191 193 194 196 198 201 203
351 357 358 355 350 345 342 345 357 26 78 106 112 116 120 123 126 130 131 131 130 128 126 126 128 131 136 139 144 150 157 160 158 155 155 155 155 156 156 156 155 155 155 156 156 157 158 158 159 159 160 162 164 166 168 170 170 172 174 177 178 181 183 185 186 187 188 189 191 193 196 198 201 204
356 2 4 1 358 356 359 15 50 81 97 106 109 111 116 121 125 127 127 125 123 121 121 121 123 125 128 132 138 145 150 152 151 151 151 152 152 152 152 152 152 153 154 155 155 155 155 156 157 158 160 163 164 165 167 168 169 170 174 177 179 181 183 183 184 185 187 188 190 193 196 198 201 203